Home   Weather   Bloomington   Past weeks

Flag for USA Past Weather in Bloomington, Indiana, USA — Yesterday and Last 2 Weeks

Now
19 °F

Passing clouds.


Feels Like: 19 °F
Forecast: 17 / 31 °F
Wind: No wind

Location: Monroe County Airport

Current Time: Dec 10, 2016 at 12:05:52 am

Latest Report: Dec 9, 2016 at 10:53 pm


Visibility: 8 mi

Pressure: 30.56 "Hg

Humidity: 85%

Dew Point: 15 °F

Location of BloomingtonLocation

Past Weather in Bloomington — Graph

°F

Bloomington Temperature Yesterday

Maximum temperature yesterday: 25 °F (at 2:53 pm)
Minimum temperature yesterday: 19 °F (at 10:53 pm)
Average temperature yesterday: 22 °F

High & Low Weather Summary for the Past Weeks

 TemperatureHumidityPressure
High61 °F (Nov 29, 1:53 pm)93% (Dec 4, 3:53 pm)30.62 "Hg (Dec 4, 3:53 pm)
Low19 °F (Dec 9, 10:53 pm)43% (Nov 30, 2:53 pm)29.35 "Hg (Nov 28, 8:53 pm)
Average38 °F72%30.08 "Hg
* Reported Nov 24 10:53 pm — Dec 9 10:53 pm, Bloomington, Weather by CustomWeather, © 2016

Note: Actual official high and low records may vary slightly from our data, if they occured in-between our weather recording intervals... More about our weather records

Advertising

Bloomington Weather History for the Previous 24 Hours

Scroll right to see more
 ConditionsComfort  
Time TempWeatherWind HumidityBarometerVisibility
10:53 pm
Fri, Dec 9
19 °FPassing clouds.No wind85%30.56 "Hg8 mi
9:53 pm22 °FOvercast.5 mph78%30.56 "Hg10 mi
8:53 pm21 °FOvercast.3 mph81%30.57 "Hg10 mi
7:53 pm23 °FPassing clouds.No wind72%30.58 "Hg10 mi
6:53 pm24 °FOvercast.5 mph68%30.58 "Hg10 mi
5:53 pm24 °FOvercast.8 mph65%30.58 "Hg10 mi
4:53 pm24 °FOvercast.7 mph62%30.58 "Hg10 mi
3:53 pm25 °FOvercast.7 mph60%30.56 "Hg10 mi
2:53 pm25 °FOvercast.9 mph60%30.56 "Hg10 mi
1:53 pm24 °FOvercast.5 mph62%30.57 "Hg10 mi
12:53 pm23 °FOvercast.8 mph65%30.58 "Hg9 mi
11:53 am23 °FLight snow. Overcast.7 mph68%30.60 "Hg10 mi
10:53 am22 °FLight snow. Mostly cloudy.5 mph72%30.62 "Hg4 mi
9:53 am22 °FLight snow. More clouds than sun.6 mph68%30.60 "Hg4 mi
8:53 am21 °FLight snow. Overcast.7 mph68%30.58 "Hg9 mi
7:53 am20 °FLight snow. Overcast.6 mph71%30.58 "Hg7 mi
6:53 am20 °FOvercast.8 mph68%30.57 "Hg9 mi
5:53 am20 °FLight snow. Overcast.6 mph74%30.56 "Hg6 mi
4:53 am21 °FLight snow. Overcast.9 mph68%30.55 "Hg8 mi
3:53 am21 °FOvercast.6 mph71%30.55 "Hg10 mi
2:53 am20 °FCold.5 mph74%30.54 "Hg9 mi
1:53 am20 °FOvercast.7 mph71%30.53 "Hg10 mi
12:53 am20 °FLight snow. Overcast.6 mph71%30.53 "Hg8 mi
12:00 am21 °FLight snow. Overcast.8 mph68%30.49 "Hg7 mi
Weather by CustomWeather, © 2016

See weather overviewHow to use our weather pages